Weather Roundup
Issued by NWS

Home | Current Version | Previous Version | Text Only | Print | Product List | Glossary On
Versions: 1 2 3 4 5 6 7 8 9 10 11 12 13 14 15 16 17 18 19 20 21 22 23 24 25 26 27 28 29 30 31 32 33 34 35 36 37 38 39 40 41 42 43 44 45 46 47 48 49 50
397
NZUS93 KARX 240610
HRRWXR

CURRENT HOURLY OBSERVATIONS ACROSS
MUCH OF THE UPPER MISSISSIPPI VALLEY
NATIONAL WEATHER SERVICE LA CROSSE WI
1200 AM CST TUE JAN 24 2017


...SOUTHEAST MINNESOTA...


CITY           SKY/WX    TMP DP  RH WIND       PRES   REMARKS
ROCHESTER      CLOUDY    30  27  88 CALM      29.85R
ROCHESTER/MAYO CLOUDY    32  29  88 W5        29.85S WCI  27
WINONA         CLOUDY    34  32  93 CALM      29.87S
AUSTIN         CLOUDY    30  27  86 CALM      29.85S
ALBERT LEA     CLOUDY    30  28  93 CALM      29.85S
DODGE CENTER   CLOUDY    30  27  86 MISG      29.84S
PRESTON        CLOUDY    31  27  86 W5        29.85R WCI  26
OWATONNA       CLOUDY    30  27  86 CALM      29.85S
FARIBAULT      NOT AVBL
$$

...ELSEWHERE IN MINNESOTA...


CITY           SKY/WX    TMP DP  RH WIND       PRES   REMARKS
MINNEAPOLIS    CLOUDY    33  27  78 NW3       29.86R
INTNL FALLS    CLOUDY    29  23  78 CALM      29.80S
DULUTH         FLURRIES  32  31  96 CALM      29.79F
RED WING       CLOUDY    34  28  80 CALM      29.85S
REDWOOD FALLS  CLOUDY    33  26  75 CALM      29.85S
MANKATO        CLOUDY    32  30  92 CALM      29.86S
WORTHINGTON    CLOUDY    30  29  96 SE7       29.82F WCI  23
FAIRMONT       CLOUDY    31  29  92 CALM      29.86S
$$

...SOUTHWEST WISCONSIN...


CITY           SKY/WX    TMP DP  RH WIND       PRES   REMARKS
LA CROSSE      CLOUDY    37  32  82 CALM      29.86R
PRAIRIE DU CHI CLOUDY    33  31  93 CALM      29.86S
BOSCOBEL       CLOUDY    35  32  88 CALM      29.86S
LONE ROCK      CLOUDY    35  31  85 SW5       29.85S WCI  31
PLATTEVILLE    CLOUDY    35  33  93 CALM      29.85S
FORT MC COY    CLOUDY    32  32 100 CALM      29.85S FOG
CAMP DOUGLAS   CLOUDY    33  32  98 W5        29.83S WCI  28
MAUSTON-NEW LI CLOUDY    34  32  95 NW6       29.83R FOG     WCI  28
VIROQUA        CLOUDY    32  32 100 CALM      29.83S
WIS DELLS      CLOUDY    33  32  95 W5        29.82S WCI  29
$$

...ELSEWHERE IN WISCONSIN...


CITY           SKY/WX    TMP DP  RH WIND       PRES   REMARKS
MILWAUKEE      CLOUDY    39  34  82 NW5       29.80F
MADISON        CLOUDY    36  32  85 CALM      29.83S
GREEN BAY      CLOUDY    36  35  96 W3        29.80S
EAU CLAIRE     CLOUDY    33  32  96 CALM      29.83S FOG
BLACK RVR FLS  CLOUDY    33  33 100 CALM      29.83F FOG
MEDFORD        CLOUDY    32  31  96 NW5       29.79F WCI  27
WAUSAU         CLOUDY    34  34 100 NW5       29.79R WCI  30
WIS RAPIDS     CLOUDY    34  34 100 NW5       29.82S FOG     WCI  30
MARSHFIELD     CLOUDY    33  31  92 NW7       29.79F WCI  27
RICE LAKE      CLOUDY    33  32  96 W3        29.85R
$$

...NORTHEAST IOWA...


CITY           SKY/WX    TMP DP  RH WIND       PRES   REMARKS
WATERLOO       CLOUDY    33  28  81 CALM      29.86F
DUBUQUE        CLOUDY    32  31  96 CALM      29.84F
DECORAH        CLOUDY    32  30  93 W5        29.84R WCI  27
MASON CITY     CLOUDY    31  28  89 W3        29.87S
CHARLES CITY   CLOUDY    32  32 100 CALM      29.86S
OELWEIN        CLOUDY    32  30  93 CALM      29.86S
$$

...ELSEWHERE IN IOWA...


CITY           SKY/WX    TMP DP  RH WIND       PRES   REMARKS
DES MOINES     CLOUDY    33  28  81 S3        29.87F
IOWA CITY      CLOUDY    34  29  82 CALM      29.89S
FORT DODGE     CLOUDY    32  28  86 CALM      29.86F
MARSHALLTOWN   CLOUDY    32  30  92 CALM      29.86S
CEDAR RAPIDS   CLOUDY    32  29  88 W6        29.86S WCI  26
$$

...NORTHERN ILLINOIS...


CITY           SKY/WX    TMP DP  RH WIND       PRES   REMARKS
CHICAGO-OHARE  CLOUDY    38  34  85 N7        29.80F WCI  33
CHICAGO-MIDWAY CLOUDY    39  33  79 NW8       29.81S WCI  33
MOLINE         CLOUDY    35  31  85 W5        29.86S WCI  31
ROCKFORD       CLOUDY    37  33  85 NW7       29.85R WCI  32
PEORIA         CLOUDY    36  34  92 VRB5      29.86S WCI  32
$$

NOTE: "FAIR" INDICATES FEW OR NO CLOUDS BELOW 12,000 FEET WITH NO
SIGNIFICANT WEATHER AND/OR OBSTRUCTIONS TO VISIBILITY. WIND
SPEEDS ARE IN MILES-PER-HOUR.




USA.gov is the U.S. government's official web portal to all federal, state and local government web resources and services.